{"data":{"norad_id":64746,"intl_designator":"2025-144Y","name":"STARLINK-34592","alt_names":[],"object_type":"PAYLOAD","status":"ACTIVE","operator":null,"country":"US","launch_date":"2025-07-02","launch_site_code":"AFETR","launch_vehicle":null,"mission":null,"orbit_class":"UNKNOWN","rcs_meters":null,"size_class":null,"mass_kg":null,"dimensions":null,"purposes":["comms"],"wikipedia_slug":null,"has_3d_model":false,"image_url":null,"decayed_at":null,"tle_current":{"epoch":"2026-05-25T01:47:26.926080Z","epoch_age_seconds":72112,"freshness":"FRESH","line1":"1 64746U 25144Y   26145.07461720  .00015889  00000+0  54726-3 0  9995","line2":"2 64746  53.1597 173.6780 0001276  84.3112 275.8035 15.30209854 51582","mean_motion":15.30209854,"eccentricity":0.0001276,"inclination_deg":53.1597,"raan_deg":173.678,"arg_perigee_deg":84.3112,"mean_anomaly_deg":275.8035,"bstar":0.00054726,"rev_number":5158,"period_min":94.104739701931,"perigee_km":474.31116333961,"apogee_km":476.06013127921,"semimajor_km":6853.3226473094,"source":"CELESTRAK","updated_at":"2026-05-25T13:38:20.549861Z"}}}